Location: Bruch
(44.2051°N, 0.4120°E)
Time: 12:41:02
(UTC+00:00)

USA 306 - Pass Details

Date: 29 November 2020
Orbit: 565 x 579 km, 54.0° (Epoch: 22 January)

Event Time Altitude Azimuth Distance (km) Brightness Sun altitude
Exits shadow 05:49:10 16° 328° (NNW) 1,541 4.7 -14.4°
Maximum altitude 05:51:31 25° 11° (NNE) 1,197 4.5 -14.0°
Drops below altitude 10° 05:55:06 10° 68° (ENE) 1,895 6.3 -13.4°
Sets 05:57:42 0° 82° (E) 2,792 7.7 -13.0°
